Location: ????????
(55.4000°N, 39.1167°E)
Time: 07:44:15
(UTC+00:00)

Meteor 1-13 Rocket - Pass Details

Date: 19 May 2025
Orbit: 829 x 911 km, 81.3° (Epoch: 15 June)

Event Time Altitude Azimuth Distance (km) Brightness Sun altitude
Exits shadow 22:24:23 18° 186° (S) 2,040 5.6 -13.4°
Maximum altitude 22:28:50 80° 102° (ESE) 927 4.4 -13.2°
Drops below altitude 10° 22:34:49 10° 16° (NNE) 2,612 8.3 -13.0°
Sets 22:37:18 0° 15° (NNE) 3,559 9.5 -12.9°
